Waterbury, CT

7:20 AM EDT on August 26, 2016 (GMT -0400)
Waterbury-Oxford

Weather History for KOXC - November, 2013

Change the Weather History Date:

Friday, November 29, 2013

  Actual Average Record
Temperature  
Mean Temperature 27 °F -  
Max Temperature 33 °F 43 °F 62 °F (2011)
Min Temperature 19 °F 28 °F 14 °F (2014)
Degree Days  
Heating Degree Days 38    
Moisture  
Dew Point 12 °F    
Average Humidity 56    
Maximum Humidity 68    
Minimum Humidity 44    
Precipitation  
Precipitation 0.00 in - - ()
Sea Level Pressure  
Sea Level Pressure 30.55 in    
Wind  
Wind Speed 2 mph (North)    
Max Wind Speed 14 mph    
Max Gust Speed 17 mph    
Visibility 10 miles    
Events      
Averages and records for this station are not official NWS values.
T = Trace of Precipitation, MM = Missing Value Source: NWS Daily Summary

Daily Weather History Graph

Daily Weather History Graph

Search for Another Location

Airport or City:

Trip Planner

Search our weather history database for the weather conditions in past years. The results will help you decide how hot, cold, wet, or windy it might be!

Date:

Astronomy

Nov. 29, 2013 Rise Set
Actual Time 6:57 AM EST 4:24 PM EST
Civil Twilight 6:26 AM EST 4:54 PM EST
Nautical Twilight 5:52 AM EST 5:29 PM EST
Astronomical Twilight 5:19 AM EST 6:02 PM EST
Moon 2:57 AM EST (11/29) 2:09 PM EST (11/29)
Length of Visible Light 10h 28m
Length of Day
9h 26m
Waning Crescent, 14% of the Moon is Illuminated
Nov 29
Waning Crescent
Dec 2
New
Dec 9
First Quarter
Dec 17
Full
Dec 25
Last Quarter

Hourly Weather History & Observations

Time (EST) Temp. Windchill Dew Point Humidity Pressure Visibility Wind Dir Wind Speed Gust Speed Precip Events Conditions
12:15 AM 24.8 °F - 12.2 °F 59% 30.45 in 10.0 mi Calm Calm - N/A   Overcast
12:35 AM 24.8 °F - 12.2 °F 59% 30.45 in 10.0 mi Calm Calm - N/A   Overcast
12:55 AM 24.8 °F - 12.2 °F 59% 30.45 in 10.0 mi Calm Calm - N/A   Overcast
1:15 AM 24.8 °F - 10.4 °F 54% 30.45 in 10.0 mi Calm Calm - N/A   Overcast
1:35 AM 24.8 °F - 10.4 °F 54% 30.45 in 10.0 mi Calm Calm - N/A   Overcast
1:55 AM 24.8 °F - 10.4 °F 54% 30.46 in 10.0 mi Calm Calm - N/A   Overcast
2:15 AM 24.8 °F - 12.2 °F 59% 30.46 in 10.0 mi Calm Calm - N/A   Overcast
2:35 AM 24.8 °F - 12.2 °F 59% 30.45 in 10.0 mi Calm Calm - N/A   Overcast
2:55 AM 24.8 °F - 12.2 °F 59% 30.45 in 10.0 mi Calm Calm - N/A   Overcast
3:15 AM 24.8 °F - 12.2 °F 59% 30.46 in 10.0 mi Calm Calm - N/A   Overcast
3:35 AM 24.8 °F - 12.2 °F 59% 30.46 in 10.0 mi Calm Calm - N/A   Overcast
3:55 AM 24.8 °F - 12.2 °F 59% 30.46 in 10.0 mi Calm Calm - N/A   Overcast
4:15 AM 24.8 °F - 12.2 °F 59% 30.46 in 10.0 mi Calm Calm - N/A   Overcast
4:35 AM 24.8 °F - 14.0 °F 64% 30.46 in 10.0 mi Calm Calm - N/A   Overcast
4:55 AM 24.8 °F - 12.2 °F 59% 30.46 in 10.0 mi Calm Calm - N/A   Overcast
5:15 AM 24.8 °F - 14.0 °F 64% 30.47 in 10.0 mi Calm Calm - N/A   Overcast
5:35 AM 24.8 °F - 14.0 °F 64% 30.47 in 10.0 mi Calm Calm - N/A   Overcast
5:55 AM 23.0 °F - 14.0 °F 68% 30.48 in 10.0 mi Calm Calm - N/A   Mostly Cloudy
6:55 AM 23.0 °F - 10.4 °F 59% 30.51 in 10.0 mi Calm Calm - N/A   Mostly Cloudy
7:55 AM 23.0 °F - 12.2 °F 63% 30.54 in 10.0 mi Calm Calm - N/A   Mostly Cloudy
8:55 AM 26.6 °F 22.6 °F 12.2 °F 55% 30.55 in 10.0 mi NNW 3.5 mph - N/A   Partly Cloudy
9:55 AM 28.4 °F 23.3 °F 15.8 °F 59% 30.57 in - NW 4.6 mph - N/A   Clear
10:55 AM 30.2 °F 22.6 °F 14.0 °F 51% 30.56 in 10.0 mi North 8.1 mph - N/A   Clear
11:55 AM 30.2 °F 24.3 °F 15.8 °F 55% 30.55 in 10.0 mi WNW 5.8 mph - N/A   Scattered Clouds
12:55 PM 32.0 °F 23.0 °F 14.0 °F 48% 30.56 in 10.0 mi NNW 11.5 mph - N/A   Scattered Clouds
1:50 PM 33.8 °F 24.3 °F 15.8 °F 48% 30.55 in 10.0 mi North 13.8 mph - N/A   Scattered Clouds
2:55 PM 32.0 °F 24.8 °F 12.2 °F 44% 30.58 in 10.0 mi NNW 8.1 mph - N/A   Scattered Clouds
3:50 PM 30.2 °F 22.6 °F 12.2 °F 47% 30.60 in 10.0 mi NNW 8.1 mph - N/A   Partly Cloudy
4:50 PM 28.4 °F 23.3 °F 10.4 °F 47% 30.62 in 10.0 mi NNW 4.6 mph - N/A   Clear
6:50 PM 24.8 °F 16.9 °F 8.6 °F 50% 30.65 in 10.0 mi North 6.9 mph - N/A   Clear
7:50 PM 26.6 °F 19.1 °F 10.4 °F 51% 30.64 in 10.0 mi North 6.9 mph 17.3 mph N/A   Clear
9:15 PM 23.0 °F 12.4 °F 8.6 °F 54% 30.68 in 10.0 mi North 10.4 mph - N/A   Clear
9:35 PM 23.0 °F 15.8 °F 8.6 °F 54% 30.69 in 10.0 mi NNE 5.8 mph - N/A   Clear
9:55 PM 24.8 °F 19.1 °F 8.6 °F 50% 30.69 in 10.0 mi NE 4.6 mph - N/A   Clear
10:15 PM 24.8 °F 20.5 °F 8.6 °F 50% 30.70 in 10.0 mi ENE 3.5 mph - N/A   Clear
10:35 PM 23.0 °F 15.8 °F 8.6 °F 54% 30.70 in 10.0 mi NE 5.8 mph - N/A   Clear
10:55 PM 23.0 °F 15.8 °F 8.6 °F 54% 30.71 in 10.0 mi NE 5.8 mph - N/A   Clear
11:15 PM 21.2 °F 16.4 °F 8.6 °F 58% 30.71 in 10.0 mi NNE 3.5 mph - N/A   Clear
11:35 PM 21.2 °F 14.9 °F 8.6 °F 58% 30.71 in 10.0 mi NNE 4.6 mph - N/A   Clear
11:55 PM 19.4 °F 11.5 °F 6.8 °F 58% 30.71 in 10.0 mi NNE 5.8 mph - N/A   Clear